Regional Weather Roundup
Issued by NWS Goodland, KS

Home | Current Version | Previous Version | Graphics & Text | Print | Product List | Glossary Off
Versions: 1 2 3 4 5 6 7 8 9 10 11 12 13 14 15 16 17 18 19 20 21 22 23 24 25 26 27 28 29 30 31 32 33 34 35 36 37 38 39 40 41 42 43 44 45 46 47 48 49 50

000
ASUS43 KGLD 060159
RWRGLD

GOODLAND FORECAST AREA HOURLY WEATHER ROUNDUP
NATIONAL WEATHER SERVICE GOODLAND KS
700 PM MST MON DEC 05 2016

...OFFICIAL OBSERVATIONS...

CITY           SKY/WX    TMP DP  RH WIND       PRES   REMARKS
GOODLAND KS    PTCLDY    30  15  53 N15       29.84R WCI  19
HILL CITY KS   MOCLDY    45  23  42 N16G23    29.76R
IMPERIAL NEB   CLOUDY    29  18  63 N20G26    29.89R WCI  16
MCCOOK NEB     CLOUDY    33  20  58 N23G31    29.85R
AKRON CO       CLOUDY    23  10  57 N23G29    29.86R WCI   7
BURLINGTON CO  CLEAR     29  10  45 N23G31    29.86R WCI  15
LIMON CO       CLEAR     23  -4  30 N16G29    29.84R WCI  10
$$

...UNOFFICIAL OBSERVATIONS...

CITY           SKY/WX    TMP DP  RH WIND       PRES   REMARKS
COLBY KS       MOCLDY    36  21  55 NW18G28   29.83R
LENORA KS        N/A     45  32  60 MISG        N/A
NORTON KS      CLOUDY    39  25  56 N29G36    29.79R
SHARON SPRINGS   N/A     34  14  43 NW23G31     N/A
TRENTON NEB      N/A     30  32 100 N15         N/A  WCI  19
KIT CARSON CO    N/A     29  10  45 MISG        N/A
YUMA CO        FAIR      21  10  63 N8        29.88R
$$




USA.gov is the U.S. government's official web portal to all federal, state and local government web resources and services.